When you browse on this site, cookies collect data to enhance your experience and personalize the content and advertising you see.
Visit our Privacy Policy to learn more. By continuing to use the site, you agree to this use of cookies and data.
  • In Lithuania
  • List of Countries
  • For 7 days
  • Water Temperature
  • Satellite Maps
  • Weather Map
  • Weather Widgets
  • user-avatar
    Login

    Hourly Weather Prutz

    Today, 24 June, Monday

    Time Temperature Precipitation Wind Pressure Humidity
    00:00 +10°C° 0 mm 0 mps 636 mmHg 94%
    01:00 +11°C° 0 mm 1 mps 637 mmHg 92%
    02:00 +11°C° 0 mm 1 mps 637 mmHg 90%
    03:00 +11°C° 0 mm 1 mps 636 mmHg 89%
    04:00 +11°C° 0 mm 1 mps 636 mmHg 88%
    05:00 +13°C° 0 mm 1 mps 637 mmHg 83%
    06:00 +14°C° 0 mm 0 mps 638 mmHg 79%
    07:00 +16°C° 0 mm 0 mps 639 mmHg 72%
    08:00 +18°C° 0 mm 0 mps 639 mmHg 64%
    09:00 +22°C° 0 mm 1 mps 640 mmHg 55%
    10:00 +24°C° 0 mm 1 mps 640 mmHg 47%
    11:00 +25°C° 0 mm 1 mps 640 mmHg 44%
    12:00 +26°C° 0 mm 1 mps 641 mmHg 40%
    13:00 +27°C° 0 mm 1 mps 641 mmHg 37%
    14:00 +27°C° 0 mm 1 mps 641 mmHg 37%
    15:00 +27°C° 0 mm 2 mps 641 mmHg 37%
    16:00 +27°C° 0 mm 2 mps 641 mmHg 36%
    17:00 +26°C° 0.1 mm 2 mps 641 mmHg 47%
    18:00 +24°C° 0.1 mm 1 mps 641 mmHg 58%
    19:00 +23°C° 0.1 mm 1 mps 640 mmHg 69%
    20:00 +20°C° 0 mm 1 mps 640 mmHg 74%
    21:00 +18°C° 0 mm 1 mps 639 mmHg 79%
    22:00 +15°C° 0 mm 1 mps 639 mmHg 84%
    23:00 +15°C° 0 mm 1 mps 639 mmHg 82%

    Tomorrow, 25 June, Tuesday

    Time Temperature Precipitation Wind Pressure Humidity
    00:00 +15°C° 0 mm 1 mps 639 mmHg 80%
    01:00 +14°C° 0 mm 1 mps 639 mmHg 78%
    02:00 +14°C° 0 mm 1 mps 638 mmHg 77%
    03:00 +14°C° 0 mm 1 mps 638 mmHg 75%
    04:00 +13°C° 0 mm 1 mps 638 mmHg 74%
    05:00 +16°C° 0 mm 1 mps 639 mmHg 67%
    06:00 +20°C° 0 mm 1 mps 640 mmHg 59%
    07:00 +22°C° 0 mm 1 mps 641 mmHg 52%
    08:00 +25°C° 0 mm 1 mps 642 mmHg 44%
    09:00 +27°C° 0 mm 1 mps 643 mmHg 37%
    10:00 +29°C° 0 mm 1 mps 643 mmHg 29%
    11:00 +29°C° 0 mm 1 mps 644 mmHg 27%
    12:00 +30°C° 0 mm 2 mps 644 mmHg 26%
    13:00 +31°C° 0 mm 2 mps 644 mmHg 24%
    14:00 +30°C° 0 mm 3 mps 644 mmHg 26%
    15:00 +30°C° 0 mm 3 mps 644 mmHg 27%
    16:00 +30°C° 0 mm 3 mps 644 mmHg 29%
    17:00 +28°C° 0 mm 2 mps 644 mmHg 39%
    18:00 +27°C° 0 mm 2 mps 643 mmHg 49%
    19:00 +25°C° 0 mm 1 mps 643 mmHg 59%
    20:00 +23°C° 0 mm 1 mps 642 mmHg 62%
    21:00 +20°C° 0 mm 1 mps 642 mmHg 66%
    22:00 +18°C° 0 mm 1 mps 641 mmHg 70%
    23:00 +18°C° 0 mm 1 mps 641 mmHg 68%

    Day after tomorrow, 26 June, Wednesday

    Time Temperature Precipitation Wind Pressure Humidity
    00:00 +16°C° 0 mm 1 mps 641 mmHg 65%
    01:00 +16°C° 0 mm 1 mps 641 mmHg 63%
    02:00 +16°C° 0 mm 1 mps 641 mmHg 61%
    03:00 +15°C° 0 mm 1 mps 641 mmHg 58%
    04:00 +15°C° 0 mm 1 mps 641 mmHg 56%
    05:00 +19°C° 0 mm 1 mps 642 mmHg 51%
    06:00 +20°C° 0 mm 0 mps 643 mmHg 45%
    07:00 +22°C° 0 mm 0 mps 644 mmHg 40%
    08:00 +26°C° 0 mm 1 mps 645 mmHg 35%
    09:00 +28°C° 0 mm 1 mps 645 mmHg 30%
    10:00 +29°C° 0 mm 1 mps 645 mmHg 25%
    11:00 +30°C° 0 mm 2 mps 645 mmHg 25%
    12:00 +30°C° 0 mm 2 mps 646 mmHg 24%
    13:00 +31°C° 0 mm 2 mps 646 mmHg 23%
    14:00 +31°C° 0 mm 2 mps 645 mmHg 25%
    15:00 +31°C° 0 mm 3 mps 645 mmHg 26%
    16:00 +31°C° 0 mm 3 mps 645 mmHg 28%
    17:00 +29°C° 0 mm 2 mps 644 mmHg 37%
    18:00 +27°C° 0 mm 2 mps 644 mmHg 47%
    19:00 +26°C° 0 mm 2 mps 643 mmHg 57%
    20:00 +23°C° 0 mm 1 mps 643 mmHg 63%
    21:00 +21°C° 0 mm 1 mps 642 mmHg 68%
    22:00 +16°C° 0 mm 0 mps 642 mmHg 74%
    23:00 +16°C° 0 mm 0 mps 642 mmHg 74%

    27 June, Thursday

    Time Temperature Precipitation Wind Pressure Humidity
    00:00 +18°C° 0 mm 1 mps 641 mmHg 73%
    01:00 +16°C° 0 mm 1 mps 641 mmHg 73%
    02:00 +16°C° 0 mm 1 mps 641 mmHg 72%
    03:00 +16°C° 0 mm 1 mps 641 mmHg 70%
    04:00 +15°C° 0 mm 1 mps 640 mmHg 69%
    05:00 +19°C° 0 mm 1 mps 641 mmHg 61%
    06:00 +20°C° 0 mm 0 mps 642 mmHg 53%
    07:00 +22°C° 0 mm 0 mps 643 mmHg 45%
    08:00 +26°C° 0 mm 1 mps 643 mmHg 40%
    09:00 +27°C° 0 mm 1 mps 644 mmHg 34%
    10:00 +29°C° 0 mm 2 mps 644 mmHg 28%
    11:00 +29°C° 0 mm 2 mps 644 mmHg 28%
    12:00 +30°C° 0 mm 3 mps 644 mmHg 27%
    13:00 +30°C° 0 mm 3 mps 644 mmHg 27%
    14:00 +30°C° 0 mm 3 mps 643 mmHg 29%
    15:00 +29°C° 0 mm 3 mps 643 mmHg 32%
    16:00 +29°C° 0 mm 4 mps 643 mmHg 34%
    17:00 +28°C° 0 mm 3 mps 642 mmHg 43%
    18:00 +26°C° 0 mm 2 mps 642 mmHg 51%
    19:00 +25°C° 0 mm 2 mps 641 mmHg 60%
    20:00 +22°C° 0.1 mm 1 mps 641 mmHg 68%
    21:00 +20°C° 0.1 mm 1 mps 640 mmHg 77%
    22:00 +18°C° 0.1 mm 1 mps 640 mmHg 85%
    23:00 +16°C° 0 mm 1 mps 639 mmHg 86%

    28 June, Friday

    Time Temperature Precipitation Wind Pressure Humidity
    00:00 +16°C° 0 mm 1 mps 639 mmHg 87%
    01:00 +15°C° 0 mm 1 mps 639 mmHg 87%
    02:00 +15°C° 0 mm 1 mps 639 mmHg 87%
    03:00 +15°C° 0 mm 1 mps 639 mmHg 86%
    04:00 +14°C° 0 mm 1 mps 638 mmHg 85%
    05:00 +16°C° 0 mm 1 mps 639 mmHg 80%
    06:00 +19°C° 0 mm 1 mps 640 mmHg 75%
    07:00 +22°C° 0 mm 1 mps 640 mmHg 71%
    08:00 +23°C° 0 mm 1 mps 641 mmHg 58%
    09:00 +25°C° 0 mm 2 mps 641 mmHg 46%
    10:00 +26°C° 0 mm 2 mps 642 mmHg 34%
    11:00 +27°C° 0 mm 2 mps 642 mmHg 32%
    12:00 +28°C° 0 mm 3 mps 642 mmHg 31%
    13:00 +28°C° 0 mm 3 mps 642 mmHg 29%
    14:00 +28°C° 0 mm 3 mps 641 mmHg 32%
    15:00 +28°C° 0 mm 3 mps 641 mmHg 35%
    16:00 +27°C° 0 mm 3 mps 641 mmHg 38%
    17:00 +26°C° 0 mm 3 mps 640 mmHg 47%
    18:00 +24°C° 0 mm 3 mps 640 mmHg 55%
    19:00 +23°C° 0 mm 2 mps 640 mmHg 64%
    20:00 +19°C° 0 mm 2 mps 639 mmHg 72%
    21:00 +18°C° 0 mm 1 mps 638 mmHg 81%
    22:00 +13°C° 0 mm 0 mps 638 mmHg 89%
    23:00 +13°C° 0 mm 0 mps 637 mmHg 89%

    29 June, Saturday

    Time Temperature Precipitation Wind Pressure Humidity
    00:00 +12°C° 0 mm 0 mps 637 mmHg 89%
    01:00 +12°C° 0 mm 0 mps 637 mmHg 89%
    02:00 +11°C° 0 mm 0 mps 637 mmHg 86%
    03:00 +11°C° 0 mm 0 mps 636 mmHg 84%
    04:00 +11°C° 0 mm 0 mps 636 mmHg 82%
    05:00 +13°C° 0 mm 0 mps 637 mmHg 70%
    06:00 +16°C° 0 mm 0 mps 638 mmHg 59%
    07:00 +19°C° 0 mm 0 mps 639 mmHg 47%
    08:00 +22°C° 0 mm 1 mps 639 mmHg 41%
    09:00 +24°C° 0 mm 1 mps 640 mmHg 34%
    10:00 +26°C° 0 mm 2 mps 640 mmHg 27%
    11:00 +27°C° 0 mm 2 mps 640 mmHg 26%
    12:00 +27°C° 0 mm 2 mps 640 mmHg 25%
    13:00 +28°C° 0 mm 2 mps 640 mmHg 24%
    14:00 +28°C° 0 mm 2 mps 640 mmHg 25%
    15:00 +28°C° 0 mm 2 mps 640 mmHg 26%
    16:00 +28°C° 0 mm 3 mps 640 mmHg 27%
    17:00 +27°C° 0 mm 2 mps 639 mmHg 37%
    18:00 +25°C° 0 mm 2 mps 639 mmHg 47%
    19:00 +23°C° 0 mm 2 mps 639 mmHg 58%
    20:00 +21°C° 0 mm 1 mps 638 mmHg 65%
    21:00 +18°C° 0 mm 1 mps 637 mmHg 72%
    22:00 +14°C° 0 mm 0 mps 637 mmHg 80%
    23:00 +15°C° 0 mm 1 mps 637 mmHg 77%
    Show more